Date,TemperatureHighF,TemperatureAvgF,TemperatureLowF,DewpointHighF,DewpointAvgF,DewpointLowF,HumidityHigh,HumidityAvg,HumidityLow,PressureMaxIn,PressureMinIn,WindSpeedMaxMPH,WindSpeedAvgMPH,GustSpeedMaxMPH,PrecipitationSumIn
2013-10-1,90,72,58,64,59,54,89,69,41,30.02,29.89,11,2,11,0.00
2013-10-2,89,73,62,71,64,56,87,73,48,30.06,29.92,10,3,11,0.00
2013-10-3,86,74,63,72,67,60,90,79,61,29.98,29.78,15,4,15,0.01
2013-10-4,89,77,66,72,68,63,89,75,50,29.95,29.78,15,5,15,0.01
2013-10-5,66,56,47,63,41,35,89,58,37,30.05,29.92,17,7,17,0.00
2013-10-6,56,49,44,46,41,35,85,75,63,30.03,29.86,20,8,20,0.01
2013-10-7,83,59,41,47,43,37,88,62,26,30.17,30.02,11,3,11,0.00
2013-10-8,79,63,49,52,47,43,82,59,33,30.14,30.05,16,4,16,0.00
2013-10-9,80,64,54,53,49,46,79,60,36,30.15,30.06,13,4,13,0.00
2013-10-10,82,65,50,58,52,45,85,63,40,30.11,29.92,12,4,12,0.00
2013-10-11,72,63,58,63,56,52,85,78,70,29.94,29.82,16,6,16,0.00
2013-10-14,71,62,52,57,48,35,89,62,37,30.26,29.90,21,8,21,0.01
2013-10-15,65,56,49,57,45,38,90,68,43,30.11,29.89,19,8,19,0.00
2013-10-16,60,51,47,43,41,38,77,67,52,30.12,30.03,14,5,14,0.00
2013-10-17,71,55,42,44,40,35,84,62,29,30.05,29.92,17,4,17,0.00
2013-10-18,48,42,37,40,36,33,90,80,68,30.18,30.05,10,3,10,0.00
2013-10-19,68,48,34,40,35,31,92,66,30,30.11,29.90,16,4,16,0.00
2013-10-20,72,56,44,45,41,36,83,60,35,30.00,29.82,14,4,14,0.00
2013-10-21,65,49,38,39,34,30,82,59,31,30.16,30.00,11,3,11,0.00
2013-10-22,61,48,38,46,38,30,83,68,46,30.15,29.92,23,6,23,0.00
2013-10-23,56,42,31,37,32,26,87,70,44,30.22,30.09,8,2,8,0.00
2013-10-24,62,45,33,36,29,22,80,56,28,30.45,30.21,16,3,16,0.00
2013-10-25,62,43,26,31,25,18,80,53,27,30.48,30.16,14,3,14,0.00
2013-10-26,70,51,35,40,32,23,81,52,25,30.22,30.09,10,3,11,0.00
2013-10-27,68,46,28,35,29,21,79,53,29,30.20,29.96,13,2,13,0.00
2013-10-28,75,54,37,48,37,28,72,54,32,30.21,30.03,11,2,11,0.00
2013-10-29,60,54,47,57,49,35,91,83,50,30.21,29.99,11,4,11,0.01
2013-10-30,65,62,58,62,59,55,91,90,88,30.02,29.73,18,3,18,0.00
2013-10-31,58,49,44,55,45,40,92,89,74,29.76,29.58,12,4,12,0.00